Dewpoint
35 31 29 28 28 27 28 26 25 25 26 26 25 24 24 24 24 25 26 27 27 29 32 34 36 38 38 38 40 41 42 44 47 52 56 58 59 62 63 63 61 59 55 47
34 32 30 30 29 29 29 27 25 25 25 26 24 23 24 24 24 24 24 24 25 25 27 28 31 36 38 39 42 42 42 44 49 53 56 57 60 58 57 56 56 52 47 42
31 30 31 30 30 29 28 26 25 24 25 25 25 23 21 22 24 25 25 25 25 25 24 23 23 29 37 39 40 42 42 46 51 54 57 58 54 50 46 47 45 42 41 37
31 30 29 29 29 28 25 26 26 26 26 23 26 21 21 19 19 20 21 21 22 23 23 24 24 23 28 37 42 43 44 47 52 56 56 56 53 49 44 44 42 39 35 34
30 31 30 28 27 28 27 28 27 27 26 26 25 23 19 15 12 14 17 19 19 20 21 22 24 27 27 30 41 45 46 48 54 55 56 54 51 51 43 40 37 35 33 28
29 31 31 30 30 29 31 29 28 27 27 24 22 21 16 8 8 11 11 16 19 19 20 21 24 27 29 33 39 47 47 51 54 56 53 52 53 44 38 35 35 34 31 27
29 29 31 30 29 30 31 28 23 23 22 17 14 14 16 13 14 15 15 17 16 18 20 22 24 27 29 32 35 47 49 50 53 52 52 52 52 42 38 36 35 30 27 24
25 26 29 33 30 29 29 28 21 16 13 12 15 14 12 13 18 19 19 20 19 19 23 28 29 28 31 36 37 46 49 50 50 51 52 54 46 42 39 34 28 25 25 23
25 26 29 32 32 30 29 28 27 23 21 18 13 10 12 14 15 16 17 19 21 23 27 31 33 32 32 37 39 46 49 49 49 51 52 47 44 38 32 26 24 22 22 20
28 27 27 30 32 31 28 27 24 26 17 13 11 13 14 16 17 18 18 19 22 26 30 33 32 32 30 38 41 48 48 48 49 50 47 42 33 26 22 22 21 21 21 19
29 27 27 29 29 27 28 27 26 23 23 16 15 15 17 18 18 17 19 19 25 27 31 36 33 31 33 40 44 47 48 47 47 45 38 32 26 21 20 19 18 18 18 18
30 29 26 26 27 27 26 26 26 24 20 24 23 21 22 22 21 21 21 24 26 25 34 38 37 37 40 44 48 48 46 45 42 37 32 26 21 20 19 19 18 18 17 15
30 28 24 27 27 26 25 26 25 28 29 25 23 21 21 21 23 23 24 25 24 25 33 39 40 42 44 48 47 45 42 39 35 31 25 20 20 20 20 19 19 17 15 13
30 29 27 23 24 26 29 29 29 31 26 24 25 24 24 25 26 27 23 24 26 26 38 39 40 41 43 45 43 41 37 33 29 25 21 19 19 17 16 16 16 15 14 14
31 29 28 29 27 27 28 29 30 32 31 27 26 28 30 32 32 30 29 27 26 34 40 40 40 41 42 41 37 32 30 26 23 22 20 19 18 17 16 16 15 14 14 14
34 28 29 28 29 28 28 29 30 33 36 35 35 33 35 33 30 32 30 28 35 36 41 39 39 39 34 30 27 24 21 20 20 21 20 19 18 17 16 15 15 15 15 14
34 32 30 24 27 26 30 33 34 37 38 36 31 31 31 31 35 38 38 39 38 40 39 37 36 31 26 22 20 19 19 20 21 21 19 18 17 17 16 15 15 15 14 14
33 33 32 26 26 24 26 34 35 35 37 37 37 35 35 35 35 40 41 43 40 38 36 34 30 26 22 21 20 21 22 20 21 20 19 17 16 15 15 15 15 15 14 13
36 35 30 26 24 24 25 32 31 35 36 37 37 37 36 36 41 40 43 41 39 36 32 29 25 23 24 24 24 24 24 21 19 18 17 15 14 14 14 14 13 13 12 12
35 35 32 27 24 21 28 33 36 38 34 36 39 40 39 38 37 38 41 38 35 30 29 28 28 30 33 32 32 31 28 26 25 19 14 13 13 13 14 14 13 13 13 12
31 32 28 27 26 25 27 33 39 29 33 36 39 39 40 36 38 41 40 35 33 31 31 30 29 31 29 29 25 22 20 17 14 12 12 13 13 13 14 13 13 13 13 12
31 30 29 31 28 24 33 34 33 34 38 37 41 39 38 38 38 38 36 32 30 28 28 26 24 22 21 21 20 18 14 12 12 13 13 13 13 13 13 13 12 12 12 11
28 31 34 30 28 30 35 35 36 37 36 36 37 42 39 38 38 37 34 34 33 28 27 24 21 21 22 20 18 14 12 13 13 13 13 13 13 13 13 13 13 12 11 9
32 33 32 32 32 34 35 36 36 37 36 36 36 38 43 37 37 35 32 29 29 31 31 28 25 20 16 14 12 12 12 13 12 12 13 13 12 12 13 13 12 11 9 9
33 35 34 33 34 35 35 36 36 36 35 33 33 35 39 36 34 33 33 29 27 24 23 22 19 15 13 12 11 12 12 12 12 13 13 14 14 12 12 12 11 10 12 15
35 33 33 30 35 35 35 36 37 35 33 32 32 33 35 35 33 31 28 27 25 24 21 17 14 12 12 11 11 12 14 14 14 13 13 13 13 12 11 10 8 16 15 16
Wind_Speed
11 12 17 18 19 19 4 7 11 12 11 20 24 27 26 26 28 30 28 28 29 30 25 24 24 25 27 28 26 25 21 19 18 17 18 18 16 11 10 8 13 17 15 14
7 19 18 10 9 12 13 15 16 17 15 12 22 36 32 34 36 32 33 34 33 31 30 30 29 28 28 28 26 24 24 21 20 17 17 16 14 13 10 5 12 13 15 12
12 1 9 16 12 12 14 15 15 17 18 22 27 35 28 20 22 32 36 36 32 31 30 30 30 29 26 27 27 25 24 22 21 19 17 14 19 13 9 10 11 12 14 12
14 9 4 11 14 12 13 10 11 13 11 8 4 18 22 22 22 19 18 18 19 23 24 26 28 27 27 28 24 23 24 22 21 21 21 23 18 17 11 15 11 14 14 13
7 8 16 13 15 10 6 2 6 8 11 16 17 12 18 10 17 16 14 14 14 15 17 19 21 23 25 23 25 22 21 22 22 24 21 22 18 16 18 17 18 14 13 12
10 5 8 11 7 11 3 5 8 10 11 13 19 22 24 8 8 8 10 7 7 9 12 13 15 18 20 21 18 21 22 22 22 23 23 23 22 24 23 21 18 16 14 13
14 17 9 11 8 7 10 3 3 5 6 12 2 15 24 15 21 9 8 11 11 10 13 16 18 18 18 19 22 19 22 23 23 24 23 24 23 24 25 24 21 20 17 15
11 7 21 13 16 6 16 11 6 6 6 11 9 13 8 11 3 6 9 12 14 16 16 13 19 20 19 19 22 21 23 23 24 24 23 21 23 19 20 21 21 19 16 14
7 3 3 9 8 14 7 13 13 16 22 17 13 20 23 25 24 12 15 21 17 12 11 16 21 21 18 18 22 22 23 22 23 23 21 22 21 21 21 22 19 19 17 15
1 3 6 7 5 11 14 1 2 5 6 10 13 22 21 15 16 11 11 11 12 11 12 16 19 16 16 18 20 22 25 24 23 23 22 21 21 21 23 22 21 20 19 16
7 4 6 5 12 15 14 17 7 8 10 8 17 17 15 12 11 12 14 12 8 13 14 14 15 13 10 15 20 23 23 23 23 22 22 23 22 22 23 23 21 19 18 15
10 3 7 13 9 9 17 13 22 11 9 11 17 39 20 23 12 17 21 18 13 13 9 11 13 5 7 14 17 21 22 23 23 22 23 23 24 24 25 22 21 18 16 15
13 6 3 3 3 9 11 20 23 24 24 33 28 28 4 15 23 19 16 17 17 15 8 6 7 5 8 12 17 20 21 22 23 23 25 25 24 25 24 23 19 17 16 15
11 5 8 7 9 7 8 15 22 23 16 35 39 46 39 34 26 22 22 22 20 15 6 6 5 8 10 13 18 20 20 22 24 25 25 26 25 25 22 21 19 17 15 14
7 6 13 20 25 25 25 26 26 26 31 26 44 38 40 31 29 23 19 19 17 8 6 4 7 11 13 16 19 19 20 23 24 26 25 25 24 23 21 19 17 16 14 13
5 5 8 18 22 21 22 23 25 26 27 22 23 31 28 21 13 13 17 14 9 15 6 7 9 16 18 17 18 19 22 22 24 26 26 24 22 21 20 19 17 15 13 11
7 4 4 7 10 21 8 7 8 13 16 10 12 13 14 14 10 12 13 15 18 22 13 13 15 17 17 18 19 22 24 25 25 27 24 23 21 20 18 17 16 14 12 9
8 12 5 9 13 3 10 4 5 10 12 12 17 18 16 17 11 8 12 15 8 15 16 16 17 18 19 20 19 21 24 25 26 25 23 20 20 20 17 16 14 12 9 7
14 4 4 5 10 18 10 3 6 3 4 10 13 10 12 8 7 3 15 11 12 14 16 16 18 21 22 21 23 22 25 24 23 21 20 18 19 19 17 15 12 9 8 5
15 14 6 4 4 4 2 4 3 3 2 14 12 13 14 13 1 5 10 12 17 19 19 21 21 23 22 19 18 23 23 22 21 19 19 18 17 17 15 12 10 8 6 4
7 5 15 12 7 10 11 4 4 5 7 11 7 12 12 7 6 6 11 13 18 20 21 22 21 22 21 22 22 23 22 21 20 19 18 17 15 15 13 11 9 6 4 1
11 11 7 8 7 10 1 3 6 5 4 3 4 5 6 7 10 11 12 15 16 19 20 19 21 21 20 19 20 22 22 19 19 19 18 16 14 11 11 10 7 5 1 2
7 9 6 11 8 9 1 9 10 6 8 4 5 4 8 7 6 10 12 16 14 15 16 16 19 20 17 16 18 23 18 18 20 19 17 14 13 11 8 7 5 2 1 3
8 8 7 4 5 11 9 9 1 4 5 4 4 6 10 10 11 13 13 14 16 17 18 19 20 20 19 17 18 21 18 18 19 18 15 12 11 9 7 5 3 1 2 4
4 7 6 14 21 12 6 5 4 3 4 5 2 5 12 15 12 12 13 15 15 17 16 16 18 19 19 19 18 17 18 17 17 15 12 10 8 6 5 3 2 3 3 3
10 10 7 7 6 5 5 4 5 4 5 5 7 11 11 14 15 15 14 15 17 17 17 19 19 21 20 19 19 16 14 14 14 13 10 8 6 5 2 1 0 5 2 2
Wind_Direction
191 209 220 225 226 248 302 293 268 272 283 289 279 276 274 271 263 257 255 254 251 246 245 239 238 239 238 233 229 226 226 205 202 198 195 200 190 172 121 173 161 171 162 158
166 228 233 253 265 244 252 258 265 279 284 292 291 283 280 268 258 255 251 247 247 246 242 241 237 231 233 230 227 226 221 208 199 195 197 194 149 92 93 122 147 154 153 145
197 205 222 229 226 235 243 256 269 278 300 293 282 286 267 257 246 244 249 252 250 250 249 245 241 235 226 230 224 217 220 204 194 193 185 166 106 115 121 134 125 137 141 139
235 204 210 200 224 226 255 261 276 279 291 277 44 293 281 277 257 232 243 245 246 246 248 251 251 242 234 225 224 219 211 203 192 186 179 167 166 160 157 151 136 134 140 138
217 217 208 219 228 213 230 325 274 282 284 296 261 241 268 284 268 259 251 249 259 245 246 251 247 244 251 241 218 212 208 201 186 186 173 167 173 163 146 139 140 130 119 125
242 168 208 210 211 217 23 234 264 261 261 261 247 215 276 284 322 359 229 210 220 236 247 250 254 260 243 244 239 199 201 194 184 173 175 180 174 151 148 144 140 134 132 132
221 220 212 227 212 205 193 207 257 234 214 252 259 217 236 270 296 257 240 229 255 274 279 265 258 246 238 230 232 200 199 192 179 180 182 186 161 160 157 149 145 141 137 135
202 192 203 186 211 183 206 204 227 268 250 301 313 251 241 245 237 245 253 265 267 280 274 300 285 240 237 221 220 196 201 189 177 179 177 169 153 157 154 149 146 140 139 141
197 226 223 163 192 209 168 212 244 277 282 276 243 264 270 265 265 300 260 241 253 261 284 308 312 266 227 216 218 194 196 183 175 170 160 151 155 153 146 141 137 130 123 134
207 201 178 182 201 230 218 177 144 215 268 262 261 279 265 260 284 292 265 238 229 259 287 307 324 275 227 217 200 195 192 174 166 159 152 144 148 145 135 133 128 127 130 136
197 207 137 148 211 204 199 227 234 276 239 274 300 270 331 325 306 290 288 284 265 271 286 308 320 291 215 215 182 188 176 160 154 150 138 139 142 138 127 122 123 124 132 136
194 177 242 236 237 225 219 218 220 226 223 235 267 270 289 288 312 300 279 262 259 279 289 306 307 283 216 193 157 171 159 146 144 136 135 137 138 132 123 124 122 132 133 135
169 207 253 150 51 238 234 241 241 241 263 255 260 259 349 282 321 295 274 265 268 285 291 303 288 156 192 151 149 153 148 141 133 134 134 136 131 124 121 122 128 131 130 128
170 212 238 257 314 324 223 231 231 226 247 262 249 270 278 284 294 292 265 274 297 289 300 298 210 150 168 147 138 145 140 139 134 133 134 129 124 122 124 126 129 127 129 127
198 256 249 260 272 274 272 269 264 250 248 255 278 284 284 295 293 289 287 280 275 294 302 239 159 162 145 136 133 134 138 134 132 131 126 120 120 119 123 123 124 124 122 120
218 268 306 285 266 254 262 272 278 279 273 270 271 279 281 279 297 322 306 272 278 297 262 175 158 139 137 133 135 140 137 130 128 120 116 116 118 122 121 123 121 119 118 118
188 220 251 270 299 307 289 261 287 273 277 262 271 280 318 313 318 280 279 276 259 236 164 167 157 142 139 134 142 142 130 121 114 112 114 119 123 120 121 119 119 120 119 123
217 215 217 293 313 273 13 183 279 277 285 333 259 281 297 300 318 18 337 295 113 131 148 148 147 132 127 129 131 127 120 115 114 112 115 120 122 119 119 118 117 118 123 122
221 258 294 279 307 287 295 312 310 341 287 13 352 334 320 335 26 46 357 49 106 128 128 133 126 118 117 119 128 121 110 106 108 112 118 122 123 121 120 118 119 122 122 120
218 222 242 328 311 286 44 17 164 174 293 8 1 346 356 335 257 25 34 81 97 106 114 114 111 106 110 115 116 107 106 111 119 126 121 123 118 117 117 120 120 109 102 104
167 188 223 237 256 273 274 331 174 341 314 343 7 336 2 52 52 80 78 71 96 107 112 115 116 119 130 141 134 126 123 119 119 119 114 109 108 112 116 116 110 112 108 136
177 180 191 195 226 265 138 263 321 337 309 320 310 335 53 78 86 80 83 91 94 107 119 119 118 123 128 127 121 116 113 114 109 107 105 104 106 113 113 112 115 109 81 297
216 195 181 203 224 275 281 288 300 299 290 285 274 177 133 121 106 108 107 111 103 87 87 89 108 106 99 99 112 109 112 112 107 102 103 109 107 105 113 119 118 123 5 340
228 206 232 265 270 262 298 297 330 321 315 346 258 214 167 146 145 132 124 120 122 127 127 132 126 116 109 103 104 111 113 112 110 111 113 112 113 116 108 92 72 30 347 339
329 156 242 255 271 283 89 34 31 49 23 46 60 167 163 141 134 133 128 122 121 123 126 127 118 111 108 107 106 109 115 116 113 113 114 111 117 109 108 79 21 356 57 15
226 234 226 290 18 330 14 34 35 60 75 81 110 116 127 140 137 135 129 129 127 125 118 109 112 111 109 110 110 113 115 115 116 115 117 116 117 111 82 26 77 171 190 305